,,,PA_Meas_PMT16A,,PR_Meas_QMR101_102,,RH_Meas_QMH101,,SR_Meas_QMS101,,TA_Meas_QMH101,,GenWind,,GenWind,
date,time,status,PA,status,PR,status,RH,status,SR,status,TA,status,DirAvg,status,SpdAvg,
2010-09-15, 00:00:04,VALID,1005.42,VALID,0,INVALID,128.44,VALID,0,VALID,23.9742,VALID,68,VALID,0.165234,
2010-09-15, 00:01:04,VALID,1005.43,VALID,0,INVALID,128.44,VALID,0.100563,VALID,23.9761,VALID,68,VALID,0.224609,
2010-09-15, 00:02:04,VALID,1005.43,VALID,0,INVALID,128.417,VALID,0.100563,VALID,23.9548,VALID,68,VALID,0.0847656,
2010-09-15, 00:03:04,VALID,1005.46,VALID,0,INVALID,128.402,VALID,0,VALID,23.9353,VALID,68,VALID,0.0847656,
2010-09-15, 00:04:04,VALID,1005.45,VALID,0,INVALID,128.402,VALID,0,VALID,23.9353,VALID,71,VALID,0.428125,
2010-09-15, 00:05:04,VALID,1005.46,VALID,0,INVALID,128.356,VALID,0,VALID,23.9566,VALID,72,VALID,0.519922,
2010-09-15, 00:06:04,VALID,1005.49,VALID,0,INVALID,128.325,VALID,0.100563,VALID,23.9159,VALID,72,VALID,0.278516,
2010-09-15, 00:07:04,VALID,1005.47,VALID,0,INVALID,128.295,VALID,0.100563,VALID,23.9159,VALID,72,VALID,0.337891,
2010-09-15, 00:08:04,VALID,1005.45,VALID,0,INVALID,128.287,VALID,0,VALID,23.8964,VALID,72,VALID,0.145313,
2010-09-15, 00:09:04,VALID,1005.5,VALID,0,INVALID,128.196,VALID,0,VALID,23.9371,VALID,71,VALID,0.205469,
2010-09-15, 00:10:04,VALID,1005.51,VALID,0,INVALID,128.119,VALID,0,VALID,23.8964,VALID,71,VALID,0.0234375,
2010-09-15, 00:11:04,VALID,1005.54,VALID,0,INVALID,128.097,VALID,0.100563,VALID,23.8964,VALID,71,VALID,0,
2010-09-15, 00:12:04,VALID,1005.54,VALID,0,INVALID,128.074,VALID,0,VALID,23.8556,VALID,71,VALID,0.141406,
2010-09-15, 00:13:04,VALID,1005.58,VALID,0,INVALID,128.127,VALID,0,VALID,23.8964,VALID,71,VALID,0.0457031,
2010-09-15, 00:14:04,VALID,1005.61,VALID,0,INVALID,128.051,VALID,0,VALID,23.8769,VALID,71,VALID,0,
2010-09-15, 00:15:04,VALID,1005.62,VALID,0,INVALID,128.036,VALID,0,VALID,23.8769,VALID,71,VALID,0,
2010-09-15, 00:16:04,VALID,1005.66,VALID,0,INVALID,127.967,VALID,0,VALID,23.8769,VALID,71,VALID,0,
2010-09-15, 00:17:04,VALID,1005.69,VALID,0,INVALID,127.921,VALID,0,VALID,23.9177,VALID,71,VALID,0,
2010-09-15, 00:18:04,VALID,1005.71,VALID,0,INVALID,127.952,VALID,0,VALID,23.8769,VALID,71,VALID,0,
2010-09-15, 00:19:04,VALID,1005.75,VALID,0,INVALID,127.868,VALID,0,VALID,23.8556,VALID,71,VALID,0,
2010-09-15, 00:20:04,VALID,1005.77,VALID,0,INVALID,127.761,VALID,0.100563,VALID,23.8964,VALID,72,VALID,0,
2010-09-15, 00:21:04,VALID,1005.8,VALID,0,INVALID,127.746,VALID,0,VALID,23.8964,VALID,71,VALID,0,
2010-09-15, 00:22:04,VALID,1005.8,VALID,0,INVALID,127.7,VALID,0,VALID,23.8964,VALID,71,VALID,0,
2010-09-15, 00:23:04,VALID,1005.82,VALID,0,INVALID,127.646,VALID,0.100563,VALID,23.8751,VALID,71,VALID,0,
2010-09-15, 00:24:04,VALID,1005.84,VALID,0,INVALID,127.593,VALID,0,VALID,23.9159,VALID,71,VALID,0,
2010-09-15, 00:25:04,VALID,1005.85,VALID,0,INVALID,127.601,VALID,0.100563,VALID,23.8946,VALID,66,VALID,0,
2010-09-15, 00:26:04,VALID,1005.85,VALID,0,INVALID,127.639,VALID,0,VALID,23.9159,VALID,65,VALID,0,
2010-09-15, 00:27:04,VALID,1005.87,VALID,0,INVALID,127.677,VALID,0,VALID,23.8751,VALID,65,VALID,0,
2010-09-15, 00:28:04,VALID,1005.88,VALID,0,INVALID,127.685,VALID,0.100563,VALID,23.8964,VALID,63,VALID,0,
2010-09-15, 00:29:04,VALID,1005.89,VALID,0,INVALID,127.768,VALID,0,VALID,23.8575,VALID,60,VALID,0,
2010-09-15, 00:30:04,VALID,1005.91,VALID,0,INVALID,127.799,VALID,0.100563,VALID,23.8575,VALID,60,VALID,0,
2010-09-15, 00:31:04,VALID,1005.9,VALID,0,INVALID,127.83,VALID,0,VALID,23.838,VALID,60,VALID,0,
2010-09-15, 00:32:04,VALID,1005.92,VALID,0,INVALID,127.883,VALID,0.100563,VALID,23.838,VALID,58,VALID,0,
2010-09-15, 00:33:04,VALID,1005.91,VALID,0,INVALID,127.776,VALID,0.100563,VALID,23.8575,VALID,28,VALID,0.670313,
2010-09-15, 00:34:04,VALID,1005.93,VALID,0,INVALID,127.791,VALID,0,VALID,23.8575,VALID,27,VALID,0.513672,
2010-09-15, 00:35:04,VALID,1005.92,VALID,0,INVALID,127.921,VALID,0,VALID,23.8362,VALID,27,VALID,0.415625,
2010-09-15, 00:36:04,VALID,1005.94,VALID,0,INVALID,127.959,VALID,0,VALID,23.8575,VALID,28,VALID,0.498437,
2010-09-15, 00:37:04,VALID,1005.98,VALID,0,INVALID,128.005,VALID,0.100563,VALID,23.8575,VALID,28,VALID,0.566016,
2010-09-15, 00:38:04,VALID,1005.98,VALID,0,INVALID,128.036,VALID,0,VALID,23.8769,VALID,28,VALID,0.375391,
2010-09-15, 00:39:04,VALID,1005.98,VALID,0,INVALID,128.188,VALID,0.100563,VALID,23.8362,VALID,28,VALID,0.354297,
2010-09-15, 00:40:04,VALID,1005.98,VALID,0,INVALID,128.287,VALID,0,VALID,23.838,VALID,28,VALID,0,
2010-09-15, 00:41:04,VALID,1006.01,VALID,0,INVALID,128.364,VALID,0.100563,VALID,23.838,VALID,28,VALID,0,
2010-09-15, 00:42:04,VALID,1006.02,VALID,0,INVALID,128.425,VALID,0,VALID,23.838,VALID,28,VALID,0,
2010-09-15, 00:43:04,VALID,1006.03,VALID,0,INVALID,128.508,VALID,0.100563,VALID,23.8185,VALID,28,VALID,0,
2010-09-15, 00:44:04,VALID,1006.03,VALID,0,INVALID,128.531,VALID,0,VALID,23.8185,VALID,28,VALID,0,
2010-09-15, 00:45:04,VALID,1006.04,VALID,0,INVALID,128.516,VALID,0,VALID,23.8185,VALID,28,VALID,0,
2010-09-15, 00:46:04,VALID,1006.05,VALID,0,INVALID,128.539,VALID,0.100563,VALID,23.8185,VALID,28,VALID,0,
2010-09-15, 00:47:04,VALID,1006.05,VALID,0,INVALID,128.57,VALID,0,VALID,23.7778,VALID,28,VALID,0,
2010-09-15, 00:48:04,VALID,1006.07,VALID,0,INVALID,128.608,VALID,0.100563,VALID,23.7991,VALID,28,VALID,0,
2010-09-15, 00:49:04,VALID,1006.08,VALID,0,INVALID,128.722,VALID,0,VALID,23.7796,VALID,28,VALID,0,
2010-09-15, 00:50:04,VALID,1006.08,VALID,0,INVALID,129.02,VALID,0,VALID,23.7796,VALID,28,VALID,0,
2010-09-15, 00:51:04,VALID,1006.08,VALID,0,INVALID,129.043,VALID,0.100563,VALID,23.7601,VALID,28,VALID,0,
2010-09-15, 00:52:04,VALID,1006.09,VALID,0,INVALID,129.065,VALID,0,VALID,23.7601,VALID,28,VALID,0,
2010-09-15, 00:53:04,VALID,1006.07,VALID,0,INVALID,129.096,VALID,0,VALID,23.7407,VALID,28,VALID,0,
2010-09-15, 00:54:04,VALID,1006.04,VALID,0,INVALID,129.126,VALID,0,VALID,23.7407,VALID,28,VALID,0,
2010-09-15, 00:55:04,VALID,1006.07,VALID,0,INVALID,129.157,VALID,0.100563,VALID,23.7,VALID,28,VALID,0,
2010-09-15, 00:56:04,VALID,1006.1,VALID,0,INVALID,129.187,VALID,0,VALID,23.7017,VALID,28,VALID,0.00507812,
2010-09-15, 00:57:04,VALID,1006.07,VALID,0,INVALID,129.065,VALID,0,VALID,23.723,VALID,27,VALID,0.277344,
2010-09-15, 00:58:04,VALID,1006.1,VALID,0,INVALID,129.058,VALID,0,VALID,23.6823,VALID,27,VALID,0.500781,
2010-09-15, 00:59:04,VALID,1006.11,VALID,0,INVALID,129.012,VALID,0,VALID,23.6823,VALID,27,VALID,0.394922,
2010-09-15, 01:00:04,VALID,1006.11,VALID,0,INVALID,129.004,VALID,0,VALID,23.6823,VALID,27,VALID,0.554297,
2010-09-15, 01:01:04,VALID,1006.14,VALID,0,INVALID,128.898,VALID,0,VALID,23.7017,VALID,25,VALID,0.558203,
2010-09-15, 01:02:04,VALID,1006.12,VALID,0,INVALID,128.928,VALID,0,VALID,23.6823,VALID,25,VALID,0.505469,
2010-09-15, 01:03:04,VALID,1006.14,VALID,0,INVALID,128.852,VALID,0,VALID,23.7035,VALID,25,VALID,0.561719,
2010-09-15, 01:04:04,VALID,1006.14,VALID,0,INVALID,128.791,VALID,0,VALID,23.6823,VALID,25,VALID,0.661328,
2010-09-15, 01:05:04,VALID,1006.17,VALID,0,INVALID,128.631,VALID,0,VALID,23.7212,VALID,25,VALID,0.596094,
2010-09-15, 01:06:04,VALID,1006.18,VALID,0,INVALID,128.608,VALID,0,VALID,23.7407,VALID,25,VALID,0.4625,
2010-09-15, 01:07:04,VALID,1006.17,VALID,0,INVALID,128.531,VALID,0,VALID,23.7601,VALID,25,VALID,0.495703,
2010-09-15, 01:08:04,VALID,1006.18,VALID,0,INVALID,128.325,VALID,0,VALID,23.7991,VALID,25,VALID,0.748828,
2010-09-15, 01:09:04,VALID,1006.18,VALID,0,INVALID,128.203,VALID,0,VALID,23.8575,VALID,25,VALID,0.386719,
2010-09-15, 01:10:04,VALID,1006.17,VALID,0,INVALID,128.196,VALID,0,VALID,23.9177,VALID,31,VALID,0.335156,
2010-09-15, 01:11:04,VALID,1006.16,VALID,0,INVALID,128.409,VALID,0,VALID,23.9353,VALID,31,VALID,0.423438,
2010-09-15, 01:12:04,VALID,1006.2,VALID,0,INVALID,128.692,VALID,0,VALID,23.9955,VALID,31,VALID,0.43125,
2010-09-15, 01:13:04,VALID,1006.18,VALID,0,INVALID,129.004,VALID,0,VALID,23.9742,VALID,31,VALID,0.229297,
2010-09-15, 01:14:04,VALID,1006.23,VALID,0,INVALID,129.241,VALID,0,VALID,24.015,VALID,27,VALID,0.603125,
2010-09-15, 01:15:04,VALID,1006.23,VALID,0,INVALID,129.355,VALID,0,VALID,24.0114,VALID,27,VALID,0.427344,
2010-09-15, 01:16:04,VALID,1006.21,VALID,0,INVALID,129.729,VALID,0,VALID,24.0521,VALID,27,VALID,0.545313,
2010-09-15, 01:17:04,VALID,1006.22,VALID,0,INVALID,130.042,VALID,0,VALID,24.0114,VALID,27,VALID,0.635938,
2010-09-15, 01:18:04,VALID,1006.19,VALID,0,INVALID,130.103,VALID,0,VALID,24.0521,VALID,27,VALID,0.594922,
2010-09-15, 01:19:04,VALID,1006.2,VALID,0,INVALID,130.172,VALID,0,VALID,24.0503,VALID,20,VALID,1.31055,
2010-09-15, 01:20:04,VALID,1006.21,VALID,0,INVALID,130.332,VALID,0,VALID,24.1689,VALID,41,VALID,0.555859,
2010-09-15, 01:21:04,VALID,1006.21,VALID,0,INVALID,130.568,VALID,0,VALID,24.1689,VALID,26,VALID,0.884375,
2010-09-15, 01:22:04,VALID,1006.2,VALID,0,INVALID,130.591,VALID,0,VALID,24.2486,VALID,15,VALID,0.521484,
2010-09-15, 01:23:04,VALID,1006.2,VALID,0,INVALID,130.767,VALID,0,VALID,24.2468,VALID,15,VALID,0.264453,
2010-09-15, 01:24:04,VALID,1006.22,VALID,0,INVALID,130.904,VALID,0,VALID,24.2468,VALID,15,VALID,0.445703,
2010-09-15, 01:25:04,VALID,1006.23,VALID,0,INVALID,130.942,VALID,0,VALID,24.2468,VALID,29,VALID,0.382813,
2010-09-15, 01:26:04,VALID,1006.27,VALID,0,INVALID,130.98,VALID,0,VALID,24.2097,VALID,31,VALID,0.266016,
2010-09-15, 01:27:04,VALID,1006.23,VALID,0,INVALID,130.98,VALID,0,VALID,24.1494,VALID,31,VALID,0.0800781,
2010-09-15, 01:28:04,VALID,1006.25,VALID,0,INVALID,131.003,VALID,0,VALID,24.1105,VALID,31,VALID,0.236719,
2010-09-15, 01:29:04,VALID,1006.24,VALID,0,INVALID,131.018,VALID,0,VALID,24.0929,VALID,31,VALID,0.280078,
2010-09-15, 01:30:04,VALID,1006.24,VALID,0,INVALID,131.011,VALID,0,VALID,24.0521,VALID,31,VALID,0.255469,
2010-09-15, 01:31:04,VALID,1006.23,VALID,0,INVALID,131.026,VALID,0,VALID,24.0132,VALID,31,VALID,0.436328,
2010-09-15, 01:32:04,VALID,1006.21,VALID,0,INVALID,130.988,VALID,0,VALID,23.9335,VALID,30,VALID,0.404687,
2010-09-15, 01:33:04,VALID,1006.22,VALID,0,INVALID,130.98,VALID,0,VALID,23.9353,VALID,30,VALID,0.507813,
2010-09-15, 01:34:04,VALID,1006.2,VALID,0,INVALID,130.927,VALID,0,VALID,23.8946,VALID,30,VALID,0.534375,
2010-09-15, 01:35:04,VALID,1006.2,VALID,0,INVALID,130.912,VALID,0,VALID,23.8964,VALID,26,VALID,0.484375,
2010-09-15, 01:36:04,VALID,1006.21,VALID,0,INVALID,130.835,VALID,0,VALID,23.8769,VALID,1,VALID,0.682422,
2010-09-15, 01:37:04,VALID,1006.25,VALID,0,INVALID,130.683,VALID,0,VALID,23.8769,VALID,1,VALID,0.367969,
2010-09-15, 01:38:04,VALID,1006.24,VALID,0,INVALID,130.645,VALID,0,VALID,23.8575,VALID,1,VALID,0.648438,
2010-09-15, 01:39:04,VALID,1006.25,VALID,0,INVALID,130.637,VALID,0,VALID,23.8185,VALID,1,VALID,0.301172,
2010-09-15, 01:40:04,VALID,1006.28,VALID,0,INVALID,130.614,VALID,0,VALID,23.7778,VALID,1,VALID,0.394922,
2010-09-15, 01:41:04,VALID,1006.3,VALID,0,INVALID,130.523,VALID,0,VALID,23.7796,VALID,1,VALID,0.457031,
2010-09-15, 01:42:04,VALID,1006.3,VALID,0,INVALID,130.53,VALID,0,VALID,23.7407,VALID,1,VALID,0.200781,
2010-09-15, 01:43:04,VALID,1006.32,VALID,0,INVALID,130.446,VALID,0,VALID,23.7,VALID,1,VALID,0.291406,
2010-09-15, 01:44:04,VALID,1006.31,VALID,0,INVALID,130.37,VALID,0,VALID,23.723,VALID,1,VALID,0.173438,
2010-09-15, 01:45:04,VALID,1006.32,VALID,0,INVALID,130.217,VALID,0,VALID,23.7017,VALID,1,VALID,0.272266,
2010-09-15, 01:46:04,VALID,1006.31,VALID,0,INVALID,130.027,VALID,0,VALID,23.7,VALID,2,VALID,0.632422,
2010-09-15, 01:47:04,VALID,1006.29,VALID,0,INVALID,129.798,VALID,0,VALID,23.7407,VALID,2,VALID,0.237891,
2010-09-15, 01:48:04,VALID,1006.29,VALID,0,INVALID,129.645,VALID,0,VALID,23.7814,VALID,25,VALID,0.768359,
2010-09-15, 01:49:04,VALID,1006.28,VALID,0,INVALID,129.493,VALID,0,VALID,23.8009,VALID,23,VALID,0.866016,
2010-09-15, 01:50:04,VALID,1006.28,VALID,0,INVALID,129.523,VALID,0,VALID,23.8203,VALID,24,VALID,0.269141,
2010-09-15, 01:51:04,VALID,1006.26,VALID,0,INVALID,129.546,VALID,0,VALID,23.7991,VALID,23,VALID,0.598437,
2010-09-15, 01:52:04,VALID,1006.23,VALID,0,INVALID,129.691,VALID,0,VALID,23.7991,VALID,23,VALID,0.301172,
2010-09-15, 01:53:04,VALID,1006.24,VALID,0,INVALID,129.79,VALID,0,VALID,23.7814,VALID,20,VALID,0.165234,
2010-09-15, 01:54:04,VALID,1006.24,VALID,0,INVALID,129.66,VALID,0,VALID,23.8185,VALID,31,VALID,0.297656,
2010-09-15, 01:55:04,VALID,1006.23,VALID,0,INVALID,129.76,VALID,0,VALID,23.838,VALID,31,VALID,0.460547,
2010-09-15, 01:56:04,VALID,1006.25,VALID,0,INVALID,129.859,VALID,0,VALID,23.8575,VALID,31,VALID,0,
2010-09-15, 01:57:04,VALID,1006.26,VALID,0,INVALID,129.988,VALID,0,VALID,23.8593,VALID,31,VALID,0.0527344,
2010-09-15, 01:58:04,VALID,1006.28,VALID,0,INVALID,130.088,VALID,0,VALID,23.8185,VALID,31,VALID,0.201172,
2010-09-15, 01:59:04,VALID,1006.29,VALID,0,INVALID,130.126,VALID,0,VALID,23.8398,VALID,31,VALID,0.4625,
2010-09-15, 02:00:04,VALID,1006.31,VALID,0,INVALID,130.217,VALID,0,VALID,23.7991,VALID,31,VALID,0.00195313,
2010-09-15, 02:01:04,VALID,1006.29,VALID,0,INVALID,130.225,VALID,0,VALID,23.7583,VALID,31,VALID,0,
2010-09-15, 02:02:04,VALID,1006.31,VALID,0,INVALID,130.248,VALID,0,VALID,23.7796,VALID,31,VALID,0,
2010-09-15, 02:03:04,VALID,1006.31,VALID,0,INVALID,130.24,VALID,0,VALID,23.7407,VALID,31,VALID,0,
2010-09-15, 02:04:04,VALID,1006.32,VALID,0,INVALID,130.202,VALID,0,VALID,23.7407,VALID,31,VALID,0,
2010-09-15, 02:05:04,VALID,1006.36,VALID,0,INVALID,130.21,VALID,0,VALID,23.7425,VALID,31,VALID,0.110156,
2010-09-15, 02:06:04,VALID,1006.33,VALID,0,INVALID,130.126,VALID,0,VALID,23.7212,VALID,34,VALID,0.545703,
2010-09-15, 02:07:04,VALID,1006.37,VALID,0,INVALID,130.042,VALID,0,VALID,23.7425,VALID,60,VALID,0.376172,
2010-09-15, 02:08:04,VALID,1006.36,VALID,0,INVALID,129.905,VALID,0,VALID,23.7425,VALID,60,VALID,0.376172,
2010-09-15, 02:09:04,VALID,1006.33,VALID,0,INVALID,129.821,VALID,0,VALID,23.7407,VALID,60,VALID,0,
2010-09-15, 02:10:04,VALID,1006.36,VALID,0,INVALID,129.653,VALID,0,VALID,23.7619,VALID,60,VALID,0,
2010-09-15, 02:11:04,VALID,1006.34,VALID,0,INVALID,129.66,VALID,0,VALID,23.7407,VALID,60,VALID,0,
2010-09-15, 02:12:04,VALID,1006.36,VALID,0,INVALID,129.607,VALID,0,VALID,23.7212,VALID,60,VALID,0,
2010-09-15, 02:13:04,VALID,1006.32,VALID,0,INVALID,129.508,VALID,0,VALID,23.7407,VALID,60,VALID,0.280469,
2010-09-15, 02:14:04,VALID,1006.35,VALID,0,INVALID,129.454,VALID,0,VALID,23.7407,VALID,60,VALID,0.280078,
2010-09-15, 02:15:04,VALID,1006.34,VALID,0,INVALID,129.386,VALID,0,VALID,23.7407,VALID,60,VALID,0.388672,
2010-09-15, 02:16:04,VALID,1006.38,VALID,0,INVALID,129.378,VALID,0,VALID,23.7425,VALID,60,VALID,0.19375,
2010-09-15, 02:17:04,VALID,1006.35,VALID,0,INVALID,129.485,VALID,0,VALID,23.7017,VALID,60,VALID,0.473828,
2010-09-15, 02:18:04,VALID,1006.35,VALID,0,INVALID,129.485,VALID,0,VALID,23.6841,VALID,60,VALID,0.355859,
2010-09-15, 02:19:04,VALID,1006.34,VALID,0,INVALID,129.477,VALID,0,VALID,23.6239,VALID,60,VALID,0.396094,
2010-09-15, 02:20:04,VALID,1006.31,VALID,0,INVALID,129.477,VALID,0,VALID,23.6062,VALID,60,VALID,0.240234,
2010-09-15, 02:21:04,VALID,1006.3,VALID,0,INVALID,129.348,VALID,0,VALID,23.6044,VALID,60,VALID,0.280078,
2010-09-15, 02:22:04,VALID,1006.31,VALID,0,INVALID,129.264,VALID,0,VALID,23.6044,VALID,60,VALID,0.154297,
2010-09-15, 02:23:04,VALID,1006.26,VALID,0,INVALID,129.21,VALID,0,VALID,23.6044,VALID,60,VALID,0.0417969,
2010-09-15, 02:24:04,VALID,1006.29,VALID,0,INVALID,129.157,VALID,0,VALID,23.6044,VALID,60,VALID,0,
2010-09-15, 02:25:04,VALID,1006.27,VALID,0,INVALID,129.119,VALID,0,VALID,23.585,VALID,60,VALID,0.309375,
2010-09-15, 02:26:04,VALID,1006.28,VALID,0,INVALID,129.111,VALID,0,VALID,23.585,VALID,60,VALID,0,
2010-09-15, 02:27:04,VALID,1006.26,VALID,0,INVALID,129.104,VALID,0,VALID,23.5868,VALID,60,VALID,0,
2010-09-15, 02:28:04,VALID,1006.26,VALID,0,INVALID,129.104,VALID,0,VALID,23.5266,VALID,60,VALID,0.366797,
2010-09-15, 02:29:04,VALID,1006.27,VALID,0,INVALID,129.119,VALID,0,VALID,23.4877,VALID,60,VALID,0.105078,
2010-09-15, 02:30:04,VALID,1006.26,VALID,0,INVALID,129.111,VALID,0,VALID,23.5089,VALID,60,VALID,0.242578,
2010-09-15, 02:31:04,VALID,1006.26,VALID,0,INVALID,129.004,VALID,0,VALID,23.4894,VALID,60,VALID,0.298047,
2010-09-15, 02:32:04,VALID,1006.23,VALID,0,INVALID,128.936,VALID,0,VALID,23.4682,VALID,60,VALID,0.345703,
2010-09-15, 02:33:04,VALID,1006.22,VALID,0,INVALID,128.775,VALID,0,VALID,23.4682,VALID,60,VALID,0.0300781,
2010-09-15, 02:34:04,VALID,1006.22,VALID,0,INVALID,128.684,VALID,0,VALID,23.47,VALID,60,VALID,0.185937,
2010-09-15, 02:35:04,VALID,1006.18,VALID,0,INVALID,128.592,VALID,0,VALID,23.4505,VALID,60,VALID,0.00625,
2010-09-15, 02:36:04,VALID,1006.15,VALID,0,INVALID,128.524,VALID,0,VALID,23.4523,VALID,60,VALID,0.0644531,
2010-09-15, 02:37:04,VALID,1006.13,VALID,0,INVALID,128.394,VALID,0,VALID,23.4311,VALID,60,VALID,0.145313,
2010-09-15, 02:38:04,VALID,1006.13,VALID,0,INVALID,128.219,VALID,0,VALID,23.4311,VALID,60,VALID,0.0078125,
2010-09-15, 02:39:04,VALID,1006.09,VALID,0,INVALID,128.104,VALID,0,VALID,23.4098,VALID,60,VALID,0,
2010-09-15, 02:40:04,VALID,1006.11,VALID,0,INVALID,128.005,VALID,0,VALID,23.4293,VALID,60,VALID,0,
2010-09-15, 02:41:04,VALID,1006.11,VALID,0,INVALID,127.898,VALID,0,VALID,23.4098,VALID,60,VALID,0,
2010-09-15, 02:42:04,VALID,1006.1,VALID,0,INVALID,127.868,VALID,0,VALID,23.4098,VALID,60,VALID,0,
2010-09-15, 02:43:04,VALID,1006.11,VALID,0,INVALID,127.822,VALID,0,VALID,23.4116,VALID,60,VALID,0,
2010-09-15, 02:44:04,VALID,1006.11,VALID,0,INVALID,127.746,VALID,0,VALID,23.3904,VALID,60,VALID,0,
2010-09-15, 02:45:04,VALID,1006.09,VALID,0,INVALID,127.669,VALID,0,VALID,23.4116,VALID,60,VALID,0,
2010-09-15, 02:46:04,VALID,1006.1,VALID,0,INVALID,127.57,VALID,0,VALID,23.4311,VALID,60,VALID,0,
2010-09-15, 02:47:04,VALID,1006.06,VALID,0,INVALID,127.494,VALID,0,VALID,23.4098,VALID,60,VALID,0,
2010-09-15, 02:48:04,VALID,1006.04,VALID,0,INVALID,127.456,VALID,0,VALID,23.4116,VALID,60,VALID,0,
2010-09-15, 02:49:04,VALID,1006.04,VALID,0,INVALID,127.402,VALID,0,VALID,23.4098,VALID,60,VALID,0,
2010-09-15, 02:50:04,VALID,1006.04,VALID,0,INVALID,127.204,VALID,0,VALID,23.4293,VALID,56,VALID,0.444922,
2010-09-15, 02:51:04,VALID,1006.05,VALID,0,INVALID,127.135,VALID,0,VALID,23.4293,VALID,56,VALID,0.337891,
2010-09-15, 02:52:04,VALID,1006.02,VALID,0,INVALID,127.09,VALID,0,VALID,23.4293,VALID,56,VALID,0.00117188,
2010-09-15, 02:53:04,VALID,1006.02,VALID,0,INVALID,127.173,VALID,0,VALID,23.4311,VALID,56,VALID,0.0582031,
2010-09-15, 02:54:04,VALID,1006.02,VALID,0,INVALID,127.173,VALID,0,VALID,23.4098,VALID,56,VALID,0,
2010-09-15, 02:55:04,VALID,1006.01,VALID,0,INVALID,127.219,VALID,0,VALID,23.3904,VALID,56,VALID,0,
2010-09-15, 02:56:04,VALID,1006.02,VALID,0,INVALID,127.25,VALID,0,VALID,23.3904,VALID,56,VALID,0,
2010-09-15, 02:57:04,VALID,1006.02,VALID,0,INVALID,127.242,VALID,0,VALID,23.3709,VALID,56,VALID,0,
2010-09-15, 02:58:04,VALID,1005.98,VALID,0,INVALID,127.166,VALID,0,VALID,23.3709,VALID,56,VALID,0,
2010-09-15, 02:59:04,VALID,1005.95,VALID,0,INVALID,127.067,VALID,0,VALID,23.3904,VALID,56,VALID,0,
2010-09-15, 03:00:04,VALID,1005.98,VALID,0,INVALID,126.983,VALID,0,VALID,23.3886,VALID,56,VALID,0,
2010-09-15, 03:01:04,VALID,1005.93,VALID,0,INVALID,126.899,VALID,0,VALID,23.4293,VALID,56,VALID,0,
2010-09-15, 03:02:04,VALID,1005.92,VALID,0,INVALID,126.792,VALID,0,VALID,23.47,VALID,56,VALID,0,
2010-09-15, 03:03:04,VALID,1005.92,VALID,0,INVALID,126.761,VALID,0,VALID,23.4487,VALID,56,VALID,0,
2010-09-15, 03:04:04,VALID,1005.9,VALID,0,INVALID,126.838,VALID,0,VALID,23.4098,VALID,56,VALID,0,
2010-09-15, 03:05:04,VALID,1005.87,VALID,0,INVALID,126.929,VALID,0,VALID,23.3904,VALID,56,VALID,0,
2010-09-15, 03:06:04,VALID,1005.86,VALID,0,INVALID,126.777,VALID,0,VALID,23.3904,VALID,56,VALID,0,
2010-09-15, 03:07:04,VALID,1005.84,VALID,0,INVALID,126.823,VALID,0,VALID,23.3921,VALID,56,VALID,0,
2010-09-15, 03:08:04,VALID,1005.81,VALID,0,INVALID,126.708,VALID,0,VALID,23.3921,VALID,56,VALID,0,
2010-09-15, 03:09:04,VALID,1005.8,VALID,0,INVALID,126.739,VALID,0,VALID,23.3709,VALID,56,VALID,0.255469,
2010-09-15, 03:10:04,VALID,1005.76,VALID,0,INVALID,126.678,VALID,0,VALID,23.3709,VALID,56,VALID,0.401953,
2010-09-15, 03:11:04,VALID,1005.75,VALID,0,INVALID,126.662,VALID,0,VALID,23.3709,VALID,56,VALID,0.350781,
2010-09-15, 03:12:04,VALID,1005.78,VALID,0,INVALID,126.617,VALID,0,VALID,23.3709,VALID,56,VALID,0.294531,
2010-09-15, 03:13:04,VALID,1005.75,VALID,0,INVALID,126.601,VALID,0,VALID,23.3921,VALID,56,VALID,0.260156,
2010-09-15, 03:14:04,VALID,1005.73,VALID,0,INVALID,126.578,VALID,0,VALID,23.3514,VALID,56,VALID,0.186719,
2010-09-15, 03:15:04,VALID,1005.74,VALID,0,INVALID,126.578,VALID,0,VALID,23.3514,VALID,56,VALID,0.00195313,
2010-09-15, 03:16:04,VALID,1005.71,VALID,0,INVALID,126.525,VALID,0,VALID,23.3532,VALID,56,VALID,0.00429688,
2010-09-15, 03:17:04,VALID,1005.73,VALID,0,INVALID,126.372,VALID,0,VALID,23.3921,VALID,56,VALID,0.0714844,
2010-09-15, 03:18:04,VALID,1005.71,VALID,0,INVALID,126.273,VALID,0,VALID,23.3921,VALID,56,VALID,0,
2010-09-15, 03:19:04,VALID,1005.69,VALID,0,INVALID,126.296,VALID,0,VALID,23.3709,VALID,56,VALID,0.0015625,
2010-09-15, 03:20:04,VALID,1005.68,VALID,0,INVALID,126.197,VALID,0.100563,VALID,23.3709,VALID,56,VALID,0.0972656,
2010-09-15, 03:21:04,VALID,1005.69,VALID,0,INVALID,126.144,VALID,0,VALID,23.3709,VALID,56,VALID,0.0183594,
2010-09-15, 03:22:04,VALID,1005.7,VALID,0,INVALID,126.06,VALID,0,VALID,23.3709,VALID,56,VALID,0,
2010-09-15, 03:23:04,VALID,1005.73,VALID,0,INVALID,126.014,VALID,0,VALID,23.3709,VALID,56,VALID,0.00429688,
2010-09-15, 03:24:04,VALID,1005.72,VALID,0,INVALID,125.884,VALID,0,VALID,23.3709,VALID,56,VALID,0.149219,
2010-09-15, 03:25:04,VALID,1005.73,VALID,0,INVALID,125.747,VALID,0,VALID,23.4098,VALID,56,VALID,0.266797,
2010-09-15, 03:26:04,VALID,1005.74,VALID,0,INVALID,125.564,VALID,0,VALID,23.4487,VALID,56,VALID,0.179688,
2010-09-15, 03:27:04,VALID,1005.7,VALID,0,INVALID,125.465,VALID,0,VALID,23.4894,VALID,56,VALID,0.230859,
2010-09-15, 03:28:04,VALID,1005.68,VALID,0,INVALID,125.396,VALID,0,VALID,23.4682,VALID,56,VALID,0.100781,
2010-09-15, 03:29:04,VALID,1005.66,VALID,0,INVALID,125.343,VALID,0,VALID,23.4682,VALID,56,VALID,0.135937,
2010-09-15, 03:30:04,VALID,1005.66,VALID,0,INVALID,125.335,VALID,0,VALID,23.4894,VALID,56,VALID,0.040625,
2010-09-15, 03:31:04,VALID,1005.64,VALID,0,INVALID,125.335,VALID,0,VALID,23.4894,VALID,56,VALID,0.14375,
2010-09-15, 03:32:04,VALID,1005.62,VALID,0,INVALID,125.51,VALID,0,VALID,23.4505,VALID,56,VALID,0.206641,
2010-09-15, 03:33:04,VALID,1005.64,VALID,0,INVALID,125.465,VALID,0,VALID,23.4311,VALID,56,VALID,0,
2010-09-15, 03:34:04,VALID,1005.6,VALID,0,INVALID,125.358,VALID,0,VALID,23.4311,VALID,56,VALID,0,
2010-09-15, 03:35:04,VALID,1005.6,VALID,0,INVALID,125.312,VALID,0,VALID,23.4505,VALID,56,VALID,0,
2010-09-15, 03:36:04,VALID,1005.58,VALID,0,INVALID,125.274,VALID,0,VALID,23.4098,VALID,56,VALID,0,
2010-09-15, 03:37:04,VALID,1005.59,VALID,0,INVALID,125.304,VALID,0,VALID,23.4098,VALID,56,VALID,0,
2010-09-15, 03:38:04,VALID,1005.59,VALID,0,INVALID,125.281,VALID,0,VALID,23.4116,VALID,56,VALID,0.203125,
2010-09-15, 03:39:04,VALID,1005.58,VALID,0,INVALID,125.152,VALID,0,VALID,23.4311,VALID,56,VALID,0.391406,
2010-09-15, 03:40:04,VALID,1005.58,VALID,0,INVALID,125.121,VALID,0,VALID,23.408,VALID,56,VALID,0.454688,
2010-09-15, 03:41:04,VALID,1005.57,VALID,0,INVALID,125.182,VALID,0,VALID,23.4098,VALID,56,VALID,0.455078,
2010-09-15, 03:42:04,VALID,1005.53,VALID,0,INVALID,125.289,VALID,0,VALID,23.4116,VALID,56,VALID,0.325781,
2010-09-15, 03:43:04,VALID,1005.53,VALID,0,INVALID,125.411,VALID,0,VALID,23.332,VALID,53,VALID,0.450781,
2010-09-15, 03:44:04,VALID,1005.5,VALID,0,INVALID,125.495,VALID,0,VALID,23.3143,VALID,53,VALID,0.464063,
2010-09-15, 03:45:04,VALID,1005.51,VALID,0,INVALID,125.625,VALID,0,VALID,23.2541,VALID,51,VALID,0.478125,
2010-09-15, 03:46:04,VALID,1005.47,VALID,0,INVALID,125.663,VALID,0,VALID,23.2347,VALID,51,VALID,0,